Location: Eenumerhoogte
(53.3420°N, 6.7843°E)
Time: 22:39:26
(UTC+00:00)

Meteor 1-25 Rocket - Pass Details

Date: 15 May 2026
Orbit: 834 x 892 km, 81.2° (Epoch: 10 June)

Event Time Altitude Azimuth Distance (km) Brightness Sun altitude
Rises 20:21:44 0° 347° (NNW) 3,457 8.5 -7.1°
Reaches altitude 10° 20:24:12 10° 350° (N) 2,507 7.6 -7.4°
Maximum altitude 20:29:53 70° 74° (ENE) 904 4.3 -8.0°
Drops below altitude 10° 20:35:26 10° 158° (SSE) 2,455 6.0 -8.5°
Enters shadow 20:35:43 - 159° (SSE) 2,562 6.1 -8.6°
